Overview Statistics Trail Chart Weather Telemetry Raw packets
 

This is the latest recevied weather packets stored in our database for station/object HP1MRA-15. If no packets are shown the sender has not sent any weather packets the latest 10 day(s).

<< 97 98 99 100 101 102 103 >>
Time Temp. Humidity Pressure Rain* Wind** Luminosity Snow
1788015757 34.44° C 67% 1003.4 hPa 0 mm - - -
1788015457 35° C 68% 1003.4 hPa 0 mm - - -
1788015157 - - 1003.3 hPa 0 mm - - -
1788014857 35.56° C 71% 1003.3 hPa 0 mm - - -
1788014557 35° C 71% 1003.1 hPa 0 mm - - -
1788014257 35° C 71% 1002.9 hPa 0 mm - - -
1788014256 35° C 71% 1002.9 hPa 0 mm - - -
1788013956 34.44° C 72% 1003 hPa 0 mm - - -
1788013657 33.89° C 73% 1002.9 hPa 0 mm - - -
1788013357 33.33° C 74% 1002.8 hPa 0 mm - - -
1788013056 32.78° C 73% 1002.8 hPa 0 mm - - -
1788012757 33.89° C 72% 1002.8 hPa 0 mm - - -
1788012456 33.89° C 73% 1002.6 hPa 0 mm - - -
1788012456 33.89° C 73% 1002.7 hPa 0 mm - - -
1788012156 33.89° C 73% 1002.5 hPa 0 mm - - -
1788011857 33.33° C 74% 1002.5 hPa 0 mm - - -
1788011557 32.22° C 75% 1002.6 hPa 0 mm - - -
1788011557 32.22° C 75% 1002.6 hPa 0 mm - - -
1788011257 31.67° C 74% 1002.6 hPa 0 mm - - -
1788010956 31.67° C 75% 1002.6 hPa 0 mm - - -
1788010657 30.56° C 76% 1002.8 hPa 0 mm - - -
1788010655 30.56° C 76% 1002.7 hPa 0 mm - - -
1788010357 30° C 76% 1002.7 hPa 0 mm - - -
1788010056 30° C 76% 1002.6 hPa 0 mm - - -
1788009756 29.44° C 75% 1002.5 hPa 0 mm - - -

* Rain latest hour (hover to see other rain measurements)
** Current wind speed in m/s (hover to see current wind gust speed)